Home   Weather   Lillestrøm   Past weeks

Flag for Norway Past Weather in Lillestrøm, Norway — Yesterday and Last 2 Weeks

Now
39 °F

Chilly.


Feels Like: 33 °F
Forecast: 30 / 46 °F
Wind: 8 mph from North

Location: Oslo-Blindern

Current Time: Apr 25, 2017 at 1:03:07 pm

Latest Report: Apr 25, 2017 at 12:00 pm


Visibility: 28 mi

Pressure: 29.47 "Hg

Humidity: 64%

Dew Point: 28 °F

Location of LillestrømLocation

Past Weather in Lillestrøm — Graph

°F

Lillestrøm Temperature Yesterday

Maximum temperature yesterday: 39 °F (at 12:00 am)
Minimum temperature yesterday: 33 °F (at 6:00 am)
Average temperature yesterday: 35 °F

High & Low Weather Summary for the Past Weeks

 TemperatureHumidityPressure
High56 °F (Apr 10, 3:00 pm)98% (Apr 13, 9:00 pm)30.55 "Hg (Apr 13, 9:00 pm)
Low24 °F (Apr 15, 6:00 am)20% (Apr 22, 3:00 pm)29.23 "Hg (Apr 24, 6:00 pm)
Average39 °F62%29.84 "Hg
* Reported Apr 10 11:00 am — Apr 25 11:00 am, Lillestrøm, Weather by CustomWeather, © 2017

Note: Actual official high and low records may vary slightly from our data, if they occured in-between our weather recording intervals... More about our weather records

Advertising

Lillestrøm Weather History for the Previous 24 Hours

Scroll right to see more
 ConditionsComfort  
Time TempWeatherWind HumidityBarometerVisibility
11:00 am
Tue, Apr 25
38 °FOvercast.6 mph67%29.44 "Hg47 mi
10:00 am37 °FChilly.8 mph69%29.44 "HgN/A
9:00 am37 °FSnow flurries. Cloudy.9 mph70%29.41 "Hg19 mi
7:00 am34 °FSnow flurries. Cloudy.8 mph79%29.38 "Hg8 mi
6:00 am33 °FLight snow. Cloudy.6 mph84%29.35 "Hg3 mi
5:00 am34 °FLight snow. Overcast.6 mph83%29.35 "Hg11 mi
4:00 am34 °FChilly.6 mph85%29.35 "HgN/A
3:00 am34 °FLight snow. Overcast.8 mph85%29.32 "Hg4 mi
2:00 am34 °FLight snow. Overcast.8 mph89%29.32 "Hg2 mi
1:00 am34 °FLight snow. Overcast.8 mph86%29.29 "Hg2 mi
12:00 am35 °FChilly.9 mph81%29.29 "Hg31 mi
11:00 pm
Mon, Apr 24
34 °FLight rain. Overcast.9 mph89%29.26 "Hg3 mi
8:00 pm34 °FLight snow. Overcast.8 mph93%29.23 "Hg4 mi
7:00 pm35 °FChilly.7 mph92%29.23 "HgN/A
6:00 pm35 °FLight rain. Cloudy.6 mph91%29.23 "Hg4 mi
5:00 pm35 °FLight rain. Overcast.6 mph92%29.26 "Hg5 mi
4:00 pm35 °FLight rain. Cloudy.5 mph93%29.26 "Hg6 mi
3:00 pm36 °FLight rain. Cloudy.5 mph91%29.26 "Hg14 mi
2:00 pm36 °FLight rain. Overcast.6 mph90%29.29 "Hg8 mi
1:00 pm36 °FLight rain. Cloudy.6 mph90%29.29 "Hg6 mi
Weather by CustomWeather, © 2017

See weather overviewHow to use our weather pages